Location: Unspecified
(0.0000°N, 0.0000°E)
Time: 23:43:52
(UTC+00:00)

S-56A Canister/Altair - Pass Details

Date: 22 December 2018
Orbit: 633 x 2500 km, 38.9° (Epoch: 18 January)

Event Time Altitude Azimuth Distance (km) Brightness Sun altitude
Rises 07:45:10 0° 322° (NW) 5,771 11.5 24.3°
Reaches altitude 10° 07:48:54 10° 327° (NNW) 4,924 11.2 25.2°
Maximum altitude 08:03:06 54° 41° (NE) 2,888 11.0 28.3°
Drops below altitude 10° 08:16:50 10° 114° (ESE) 4,806 13.2 31.4°
Sets 08:20:23 0° 118° (ESE) 5,631 13.1 32.2°
